User: anonymous   Login
Location: Newark
(19.5361°N, 155.5761°W)
Time: 00:59:17
(UTC+00:00)
Language:

XW-2C - Orbit

View from above orbital plane
View from above orbital plane
View from above satellite
View from above satellite

Ground track
Ground track

The orbit data is extracted from the following two-line orbital elements,

1 40906U 15049H   20093.81073209  .00000775  00000-0  43773-4 0  9999
2 40906  97.4771  96.2807 0013023 278.1461 205.5410 15.15988841250796
Epoch (UTC): 02 April 2020 19:27:27
Eccentricity: 0.0013023
inclination: 97.4771°
perigee height: 509 km
apogee height: 527 km
right ascension of ascending node: 96.2807°
argument of perigee: 278.1461°
revolutions per day: 15.15988841
mean anomaly at epoch: 205.5410°
orbit number at epoch: 25079

The dashed part of the orbit path shows where the satellite is in the earth's shadow,  

DLR